Location: Chin
(49.7667°N, 112.4500°W)
Time: 12:43:24
(UTC+00:00)

N. Korean satellite - Pass Details

Date: 11 December 2021
Orbit: 447 x 490 km, 97.3° (Epoch: 27 January)

Event Time Altitude Azimuth Distance (km) Brightness Sun altitude
Rises 12:25:39 0° 19° (NNE) 2,463 10.3 -26.5°
Reaches altitude 10° 12:27:47 10° 28° (NNE) 1,586 9.4 -26.2°
Enters shadow 12:28:20 14° 32° (NNE) 1,376 9.1 -26.1°
Exits shadow 12:32:45 21° 155° (SSE) 1,051 8.5 -25.4°
Drops below altitude 10° 12:34:10 10° 169° (SSE) 1,579 9.3 -25.1°
Sets 12:36:17 0° 177° (S) 2,450 10.3 -24.8°
